TimeCST,TemperatureF,Dew PointF,Humidity,Sea Level PressureIn,VisibilityMPH,Wind Direction,Wind SpeedMPH,Gust SpeedMPH,PrecipitationIn,Events,Conditions,WindDirDegrees,DateUTC
12:56 AM,35.1,27.0,72,30.34,10.0,North,4.6,-,N/A,,Clear,350,2013-01-04 06:56:00
1:30 AM,-9999,-9999,N/A,-9999,-9999.0,North,-9999.0,-,N/A,Hail,Hail,0,2013-01-04 07:30:00
1:56 AM,34.0,27.0,75,30.34,10.0,North,3.5,-,N/A,,Clear,360,2013-01-04 07:56:00
2:56 AM,33.1,27.0,78,30.33,10.0,North,8.1,-,N/A,,Clear,350,2013-01-04 08:56:00
3:56 AM,34.0,27.0,75,30.34,10.0,North,3.5,-,N/A,,Clear,350,2013-01-04 09:56:00
4:56 AM,32.0,27.0,82,30.34,10.0,North,3.5,-,N/A,,Clear,360,2013-01-04 10:56:00
5:56 AM,32.0,27.0,82,30.34,10.0,North,5.8,-,N/A,,Clear,360,2013-01-04 11:56:00
6:56 AM,33.1,26.1,75,30.38,10.0,Calm,Calm,-,N/A,,Clear,0,2013-01-04 12:56:00
7:56 AM,34.0,27.0,75,30.40,10.0,North,5.8,-,N/A,,Clear,350,2013-01-04 13:56:00
8:56 AM,39.9,28.0,63,30.42,10.0,North,5.8,-,N/A,,Clear,10,2013-01-04 14:56:00
9:56 AM,44.1,26.1,49,30.42,10.0,NE,10.4,-,N/A,,Clear,40,2013-01-04 15:56:00
10:56 AM,48.9,24.1,38,30.40,10.0,North,5.8,-,N/A,,Clear,360,2013-01-04 16:56:00
11:56 AM,51.1,23.0,33,30.38,10.0,NNW,6.9,-,N/A,,Clear,340,2013-01-04 17:56:00
12:56 PM,53.1,23.0,31,30.36,10.0,NW,11.5,-,N/A,,Clear,310,2013-01-04 18:56:00
1:56 PM,55.0,21.9,28,30.32,10.0,NNW,8.1,-,N/A,,Clear,340,2013-01-04 19:56:00
2:56 PM,55.0,21.9,28,30.33,10.0,NNW,8.1,-,N/A,,Clear,330,2013-01-04 20:56:00
3:56 PM,54.0,24.1,31,30.33,10.0,NNE,6.9,-,N/A,,Clear,20,2013-01-04 21:56:00
4:56 PM,51.1,27.0,39,30.35,10.0,NNW,4.6,-,N/A,,Clear,340,2013-01-04 22:56:00
5:56 PM,46.9,28.9,50,30.36,10.0,NNW,3.5,-,N/A,,Clear,340,2013-01-04 23:56:00
6:56 PM,43.0,33.1,68,30.38,10.0,Calm,Calm,-,N/A,,Clear,0,2013-01-05 00:56:00
7:56 PM,41.0,32.0,70,30.38,10.0,North,4.6,-,N/A,,Clear,350,2013-01-05 01:56:00
8:56 PM,37.0,32.0,82,30.39,10.0,Calm,Calm,-,N/A,,Clear,0,2013-01-05 02:56:00
9:56 PM,37.9,30.9,76,30.38,10.0,North,6.9,-,N/A,,Clear,350,2013-01-05 03:56:00
10:56 PM,39.9,27.0,60,30.36,10.0,North,4.6,-,N/A,,Clear,350,2013-01-05 04:56:00
11:56 PM,39.0,28.9,67,30.35,10.0,North,6.9,-,N/A,,Clear,350,2013-01-05 05:56:00